设为首页收藏本站

浙东论坛

 找回密码
 立即注册

QQ登录

只需一步,快速开始

扫一扫,访问微社区

搜索
热搜: 活动 交友 discuz
订阅

最新回复

标题 版块/群组 作者 回复/查看 最后发表
grey's anatomy seasons 1-14 dvd box set calcium content is high 18.历史民俗 cp2bEsOP4un 昨天 07:14 02 cp2bEsOP4un 昨天 07:14
disney movie collection lignin emerald production of the largest 21.论坛站务 s0H3egJ4s1 3 天前 02 s0H3egJ4s1 3 天前
Cheap NFL Jerseys China3v 21.论坛站务 b2dj46wd 2018-2-12 08 b2dj46wd 2018-2-12 02:24
Wholesale Jerseys4n 19.养儿育女 b2dj46wd 2018-2-12 06 b2dj46wd 2018-2-12 00:14
Wholesale Jerseys1q 08.公益小站 b2dj46wd 2018-2-11 06 b2dj46wd 2018-2-11 21:38
Cheap Football Jerseys8t 07.跳蚤市场 b2dj46wd 2018-2-11 09 b2dj46wd 2018-2-11 19:33
Pandora Bracelets UK Sale Bai Shuizhu 13.我爱拍照 cp2bEsOP4un 2018-2-11 011 cp2bEsOP4un 2018-2-11 05:20
Pandora Outlet Italia Honey + vinegar 05.情感驿站 cp2bEsOP4un 2018-2-11 09 cp2bEsOP4un 2018-2-11 05:19
Pandora Outlet Store Italia squats you can keep feet to open and shoulder width 01.民生杂谈 cp2bEsOP4un 2018-2-11 07 cp2bEsOP4un 2018-2-11 05:15
Manhunt Unabomber Season 1 DVD because the bicycle gear is round 04.美食美景 9H6v1l8Uke 2018-2-10 012 9H6v1l8Uke 2018-2-10 14:35
NCIS Seasons 1-14 DVD Boxset There are 108 12.手机数码 k7rxsQ4g4 2018-2-8 09 k7rxsQ4g4 2018-2-8 10:16
cheap pandora charms uk the color of the fashion earrings to match with clothin 12.手机数码 k7rxsQ4g4 2018-2-8 09 k7rxsQ4g4 2018-2-8 10:15
Peaky Blinders Seasons 1-5 DVD gold is 53 04.美食美景 k7rxsQ4g4 2018-2-8 010 k7rxsQ4g4 2018-2-8 10:13
Wolf Creek Seasons 1-2 DVD Silver jewelry without electroplating新人帖 06.生活百科 k7rxsQ4g4 2018-2-8 08 k7rxsQ4g4 2018-2-8 10:13
Cheap NFL Football Jerseys9s 13.我爱拍照 b2dj46wd 2018-2-7 013 b2dj46wd 2018-2-7 23:52
discount pandora bracelets sale 0 even at 4新人帖 21.论坛站务 l7MjypgNa.张公 2018-2-7 011 l7MjypgNa.张公 2018-2-7 23:36
Cheap Football Jerseys2w 12.手机数码 b2dj46wd 2018-2-7 013 b2dj46wd 2018-2-7 21:31
chicago code season 2 dvd humidity新人帖 18.历史民俗 wz6OEr49r2O 2018-2-7 07 wz6OEr49r2O 2018-2-7 18:37
Nike Dunk SB High box jumps NO.h674 08.公益小站 glooer713 2018-2-7 013 glooer713 2018-2-7 15:47
disney dvd collection [Obsidian Bracelet correct maintenance method] 01.民生杂谈 fhz66CKQ7 2018-2-7 010 fhz66CKQ7 2018-2-7 13:48
One of Us Seasons 1-2 DVD silver in the soak for 10 minutes. 14.求医问药 fhz66CKQ7 2018-2-7 012 fhz66CKQ7 2018-2-7 13:47
baby einstein 26 dvd collection 16.眼科讨论 fhz66CKQ7 2018-2-7 08 fhz66CKQ7 2018-2-7 13:46
ncis box set 1-13 Dongcheng District新人帖 17.书海拾贝 fhz66CKQ7 2018-2-7 09 fhz66CKQ7 2018-2-7 13:46
Armour Curry 4 White from all three shoes NO.y413 07.跳蚤市场 keanter00375 2018-2-6 010 keanter00375 2018-2-6 10:02
Nike Kyrie 4 White hear a confirmed NO.o829 01.民生杂谈 keanter00375 2018-2-5 013 keanter00375 2018-2-5 19:17
Cheap NFL Jerseys From China1x 17.书海拾贝 b2dj46wd 2018-2-5 011 b2dj46wd 2018-2-5 17:16
Cheap NFL Jerseys1l 09.广告专区 b2dj46wd 2018-2-5 015 b2dj46wd 2018-2-5 12:14
Jordan 12 Retro Blue Suede is releasing two editions NO.m181 21.论坛站务 glooer713 2018-2-5 07 glooer713 2018-2-5 10:44
True Detective Seasons 1-3 DVD long-term impact will wear it新人帖 11.电影音乐 3T7j1u0Ucp 2018-2-4 015 3T7j1u0Ucp 2018-2-4 14:25
iZombie Seasons 1-4 DVD now singing 04.美食美景 u6Q5zF0yW9 2018-2-3 015 u6Q5zF0yW9 2018-2-3 21:07
Urban Myths Season 1 DVD Box Set A新人帖 08.公益小站 u6Q5zF0yW9 2018-2-3 019 u6Q5zF0yW9 2018-2-3 21:05
Balenciaga Triple S Red with us for more information 19.养儿育女 christ450 2018-2-3 010 christ450 2018-2-3 11:25
Wholesale Jerseys China4u 11.电影音乐 b2dj46wd 2018-2-2 09 b2dj46wd 2018-2-2 15:50
Cheap NFL Jerseys From China2a 14.求医问药 b2dj46wd 2018-2-2 011 b2dj46wd 2018-2-2 13:43
Wholesale Jerseys2p 09.广告专区 b2dj46wd 2018-2-2 015 b2dj46wd 2018-2-2 11:37
Mens Air Max 2016 different levels NO.v849 17.书海拾贝 glooer713 2018-2-2 011 glooer713 2018-2-2 10:51
Cheap NFL Jerseys China0k 04.美食美景 b2dj46wd 2018-2-1 017 b2dj46wd 2018-2-1 21:35
Cheap NFL Jerseys China8z 04.美食美景 b2dj46wd 2018-2-1 023 b2dj46wd 2018-2-1 19:36
http://www.pandoracharmssale.biz/ Eve joy. men wear studs新人帖 15.养生保健 lk7QhdMXw 2018-2-1 023 lk7QhdMXw 2018-2-1 16:14
Nike KD 10 For Sale have various shades NO.1853 01.民生杂谈 keanter00375 2018-1-31 026 keanter00375 2018-1-31 14:40
Mars Seasons 1-2 DVD red is 8 points and 7 points 10.娱乐灌水 8H8d9v3z 2018-1-31 023 8H8d9v3z 2018-1-31 11:15
The Making of the Mob Chicago Seasons 1-2 DVD the composite bow新人帖 13.我爱拍照 8H8d9v3z 2018-1-31 026 8H8d9v3z 2018-1-31 11:14
best pandora stations 2017 this excess heat. eat enough. 13.我爱拍照 iXWl7flwP4d 2018-1-30 030 iXWl7flwP4d 2018-1-30 13:35
pandora rings clearance uk and lungs. 20.宝贝风采 iXWl7flwP4d 2018-1-30 029 iXWl7flwP4d 2018-1-30 13:35
Walt Disney's 100 Years Of Magic 172 discs Collection DVD Boxset Most importantl 21.论坛站务 iXWl7flwP4d 2018-1-30 023 iXWl7flwP4d 2018-1-30 13:34
Three Girls Season 2 DVD Boxset daily diet rules in the same situation 01.民生杂谈 iXWl7flwP4d 2018-1-30 034 iXWl7flwP4d 2018-1-30 13:34
Nike Dunk SB Low Wheat box jumps NO.D748 14.求医问药 glooer713 2018-1-30 037 glooer713 2018-1-30 11:32
Cheap NFL Jerseys China Wholesale3c 09.广告专区 b2dj46wd 2018-1-29 032 b2dj46wd 2018-1-29 22:22
Cheap NFL Jerseys Wholesale7j 01.民生杂谈 b2dj46wd 2018-1-29 034 b2dj46wd 2018-1-29 20:40
Wholesale Jerseys China8x 17.书海拾贝 b2dj46wd 2018-1-29 029 b2dj46wd 2018-1-29 19:05

QQ|Archiver|手机版|小黑屋|免责声明|浙东生活网    

GMT+8, 2018-2-22 03:22 , Processed in 0.092970 second(s), 17 queries .

Powered by Discuz! X3.2

© 2001-2013 Comsenz Inc. Template By 【未来科技】【 www.veikei.com 】

返回顶部